Torna al catalogo

STARLINK-11649

AttivoComunicazioniVLEO
NORAD 64069·PAYLOAD·🇺🇸 United States

Lanciato May 21, 2025 da Cape Canaveral Space Force Station

Loading…

Prossimi Passaggi (prossime 24 ore)

TLE

AggiornatoSource: CelesTrak SupGP

Epoca: Sep 14, 2026, 22:30 UTC

1 64069C 25107F   26257.93798611  .00083862  00000+0  65092-3 0  2574
2 64069  43.0010  38.1168 0001704 276.5173 135.6450 15.70812660    16

Traccia STARLINK-11649 in tempo reale con AllMySat

Download on the App Store